Regional Weather Roundup
Issued by NWS Charleston, SC

Current Version | Previous Version | Text Only | Print | Product List | Glossary Off
Versions: 1 2 3 4 5 6 7 8 9 10 11 12 13 14 15 16 17 18 19 20 21 22 23 24 25 26 27 28 29 30 31 32 33 34 35 36 37 38 39 40 41 42 43 44 45 46 47 48 49 50

000
ASUS42 KCHS 272010
RWRCHS

REGIONAL WEATHER ROUNDUP
NATIONAL WEATHER SERVICE CHARLESTON SC
300 PM EST TUE JAN 27 2015

NOTE: "FAIR" INDICATES FEW OR NO CLOUDS BELOW 12,000 FEET WITH NO
SIGNIFICANT WEATHER AND/OR OBSTRUCTIONS TO VISIBILITY.

NOT ALL STATIONS ARE QUALITY CONTROLLED BY THE NATIONAL
WEATHER SERVICE. USE DATA WITH CAUTION...ESPECIALLY
DEWPOINT OBSERVATIONS.

SCZ027-030-031-034>040-042>050-272100-
...SOUTHEAST SOUTH CAROLINA...

CITY           SKY/WX    TMP DP  RH WIND       PRES   REMARKS
N CHARLESTON   MOSUNNY   51  21  30 NW14G22   29.85S
WATERFRONT PRK NOT AVBL
MOUNT PLEASANT FAIR     N/A N/A N/A NW14      29.83F
PINOPOLIS      NOT AVBL
MONCKS CORNER  FAIR      50  19  29 NW6       29.85S
SUMMERVILLE    FAIR      50  30  46 W10G17    29.87R
BEAUFORT MCAS  PTSUNNY   50  30  46 NW14      29.89R
BEAUFORT ARPT  CLOUDY    50  34  53 NW17      29.88R
HILTON HEAD IS SUNNY     52  34  50 N12G23    29.89R
WALTERBORO     PTCLDY    50  23  34 W10       29.88S
ALLENDALE      CLOUDY    48  30  49 NW9G15    29.88S

...SOUTHERN MIDLANDS AND PEE DEE...

CITY           SKY/WX    TMP DP  RH WIND       PRES   REMARKS
GEORGETOWN     NOT AVBL
KINGSTREE      NOT AVBL
ORANGEBURG     MOSUNNY   49  24  37 NW17      29.87R
BARNWELL       CLOUDY    48  32  53 N10       29.89S
AIKEN          FAIR      48  30  49 NW9       29.90F
MANNING        FAIR      48  19  32 NW5       29.85S
COLUMBIA       MOSUNNY   49  26  41 W17G24    29.87R
SUMTER         SUNNY     48  18  30 NW12      29.84S
FLORENCE       SUNNY     49  12  22 NW15      29.82F
MYRTLE BEACH   SUNNY     46  21  36 N14       29.83S
N MYRTLE BEACH SUNNY     47  22  37 NW8G16    29.81R

$$

GAZ063-065-086>088-099>101-113>116-118-119-134>141-150-272100-
...SOUTHEAST GEORGIA...

CITY           SKY/WX    TMP DP  RH WIND       PRES   REMARKS
SAVANNAH ARPT  PTSUNNY   53  27  36 NW20G25   29.88R
HUNTER AAF     CLOUDY    53  30  41 NW16G24   29.86R
FORT STEWART   CLOUDY    54  31  41 W18G25    29.87R
STATESBORO     PTSUNNY   54  32  43 NW17G25   29.89R
SYLVANIA       CLOUDY    51  35  54 N10G20    29.89R
CLAXTON        FAIR      52  34  50 NW15G26   29.90R

...CSRA...CENTRAL AND FAR SOUTHEAST GEORGIA...

CITY           SKY/WX    TMP DP  RH WIND       PRES   REMARKS
THOMSON        CLOUDY    53  32  45 NW10      29.93S
AUGUSTA-BUSH   MOSUNNY   51  28  41 NW14G22   29.89S
AUGUSTA-DANIEL PTSUNNY   51  29  42 NW12      29.89S
SWAINSBORO     MOCLDY    55  19  24 NW16G23   29.91R
VIDALIA        CLOUDY    54  32  43 NW12G18   29.91R
EASTMAN        FAIR      55  32  40 NW12G23   29.94S
HAZLEHURST     MOCLDY    56  34  43 NW13G21   29.90F
ALMA           PTSUNNY   56  34  43 NW14      29.90S
WAYCROSS       MOSUNNY   59  39  47 NW12G23   29.90S
JESUP          MOCLDY    57  37  47 NW15G22   29.90R
BAXLEY         FAIR      57  34  41 NW16G22   29.91R
BRUNSWICK      CLOUDY    59  36  41 W12G17    29.89S
SAINT SIMONS   PTSUNNY   55  36  48 NW10G18   29.88S

$$

SCZ027-028-034-036>038-045-046-048>050-GAZ119-141-272100-
...LAKE AND SUPPLEMENTAL COASTAL OBSERVATIONS...

STATION/POSITION TIME  TEMP    WIND        PRES    WAVE   SWELL
                       AIR SEA DIR/SP/G            HT/PER HT/PER/DIR
                 (UTC) (F)     (DEG/KT/KT) (MB)    (FT/S) (FT/S/D)
UPR LAKE MARION  NOT AVBL
WINYAH BAY       1845   46     300/ 12     1008.0
LAKE MURRAY      1900   45     320/  5/ 10 1010.8F
ACE BASIN NERRS  1845   49     330/  5     1011.0
FORT PULASKI     1900   49 52  330/ 16/ 20 1011.4F
SAPELO ISLAND    1900   54     280/ 13     1011.0F

$$

ANZ835-935-AMZ111-154-330-350-352-354-370-450-454-472-272100-
...C-MAN AND BUOY OBSERVATIONS...

STATION/POSITION TIME  TEMP    WIND        PRES    WAVE   SWELL
                       AIR SEA DIR/SP/G            HT/PER HT/PER/DIR
                 (UTC) (F)     (DEG/KT/KT) (MB)    (FT/S) (FT/S/D)
BUOY 41004       1950   48 68  300/ 17/ 23 1009.4S   4/ 6   2/10
BUOY 41008       1950   52 55  290/ 17/ 21 1011.2R   3/ 4
FOLLY BEACH CMAN 1900   48     280/  8/ 12 1011.2F
CAPERS NEARSHORE 1900   47     320/ 10/ 12   N/A
FRIPP NEARSHORE  1900   48     350/ 10/ 12   N/A


STATION/POSITION TIME  TEMP    WIND        PRES    WAVE   SWELL
                       AIR SEA DIR/SP/G            HT/PER HT/PER/DIR
                 (UTC) (F)     (DEG/KT/KT) (MB)    (FT/S) (FT/S/D)
5E ST. MARYS GA  1922      58                N/A     2/ 3
FRYING PAN BUOY  1950   44 66  330/ 16/ 19 1009.1R   5/ 8   3/200/ 8
BUOY 41025       1950   38 70  330/ 19/ 25 1006.1R  10/13   8/ 50/13
CAPE LOOKOUT NC  1900   36     340/ 16/ 19 1007.6R
BUOY 41002       1950   59 71  280/ 25/ 31 1004.2R  14/10  10/260/10
BUOY 41010       1920   61 76  290/ 25/ 31 1011.3F
ST AUGUSTINE FL  2000   62     280/ 12/ 19 1011.7F


$$


USA.gov is the U.S. government's official web portal to all federal, state and local government web resources and services.